Regional Weather Roundup
Issued by NWS Northern Indiana

Home | Current Version | Previous Version | Graphics & Text | Print | Product List | Glossary On
Versions: 1 2 3 4 5 6 7 8 9 10 11 12 13 14 15 16 17 18 19 20 21 22 23 24 25 26 27 28 29 30 31 32 33 34 35 36 37 38 39 40 41 42 43 44 45 46 47 48 49 50
000
ASUS43 KIWX 201900
RWRIWX

KIWX WEATHER ROUNDUP
NATIONAL WEATHER SERVICE NORTHERN INDIANA
200 PM EST FRI JAN 20 2017

NOTE: "FAIR" INDICATES FEW OR NO CLOUDS BELOW 12,000 FEET WITH NO
SIGNIFICANT WEATHER AND/OR OBSTRUCTIONS TO VISIBILITY.

* THESE STATIONS ARE NOT UNDER NWS QUALITY CONTROL. THEY ALSO MAY NOT
  REPORT WEATHER SUCH AS PRECIPITATION OR FOG.

INZ001>027-202000-
NORTHERN INDIANA

CITY           SKY/WX    TMP DP  RH WIND       PRES   REMARKS
GARY*          CLOUDY    43  43 100 CALM      29.65S FOG
VALPARAISO     CLOUDY    43  43 100 S5        29.64F FOG
KNOX*          CLOUDY    43  36  75 SW6       29.65S
SOUTH BEND     CLOUDY    40  39  97 SW8       29.66S FOG
ELKHART*       CLOUDY    39  39 100 SW6       29.66S FOG
GOSHEN         FOG       42  40  92 SW7       29.65R VSB 1/2
WARSAW*        CLOUDY    43  41  93 W7        29.64F FOG
FORT WAYNE     CLOUDY    49  46  90 W8        29.65F FOG
PERU/GRISSOM   CLOUDY    50  50 100 SW14      29.63F

$$
INZ028>050-202000-
CENTRAL INDIANA

CITY           SKY/WX    TMP DP  RH WIND       PRES   REMARKS
LAFAYETTE      CLOUDY    49  47  93 SW5       29.64F
KOKOMO*        CLOUDY    51  47  86 W15       29.66F
MUNCIE*        CLOUDY    54  50  86 W10       29.66S
INDIANAPOLIS   CLOUDY    53  51  93 SW12      29.67F

$$
MIZ043>046-050>051-056>058-064>065-071>073-077>080-202000-
SOUTHWEST LOWER MICHIGAN

CITY           SKY/WX    TMP DP  RH WIND       PRES   REMARKS
BATTLE CREEK   CLOUDY    38  37  97 CALM      29.64S FOG
BENTON HARBOR  CLOUDY    41  39  93 S5        29.64F FOG
COLDWATER*     CLOUDY    40  40 100 SW7       29.64R FOG
HILLSDALE*     FOG       37  37 100 SW5       29.62S VSB 1
HOLLAND        CLOUDY    37  35  92 E8        29.64F
GRAND RAPIDS   LGT RAIN  36  34  92 NE7       29.63F FOG
KALAMAZOO      CLOUDY    38  36  92 S7        29.65S FOG
STURGIS*       CLOUDY    39  39  98 SW6       29.64R FOG
THREE RIVERS*  CLOUDY    38  38  99 SW3       29.65S FOG

$$
OHZ001>008-015>018-024>025-202000-
NORTHWEST OHIO

CITY           SKY/WX    TMP DP  RH WIND       PRES   REMARKS
DEFIANCE       CLOUDY    43  42  97 W6        29.65S FOG
FINDLAY        CLOUDY    52  48  86 SW12      29.64S FOG
TOLEDO EXPRESS CLOUDY    43  43 100 W10       29.65R FOG
TOLEDO METCALF CLOUDY    45  45 100 W12       29.66R FOG
LIMA           CLOUDY    54  53  97 W16       29.65S

$$
AND FOR LAKE MICHIGAN COASTAL AND OPEN LAKE BUOY OBSERVATIONS

STATION/POSITION TEMP    WIND        PRES    VSBY  WAVE
                 AIR SEA DIR/SP/G                  HT/PER
                 (F)     (DEG/KT/KT) (MB)    (MI)  (FT/S)
CALUMET HARBOR    39      CALM  /  2 1003.4F
MICHIGAN CITY     38     210/  6/  7   N/A
BURNS HARBOR      41     200/  8/ 11 1005.1

$$
&&




USA.gov is the U.S. government's official web portal to all federal, state and local government web resources and services.